Simultaneous Nadir Overpasses (SNOs) Predictions

Prediction of SNOs between METOP-B and NOAA-19 Satellite Orbit:

Table of predicted SNOs for the next 14.0 days since TLE Epoch: 10/16/2016
Index Date (METOP-B) Time (METOP-B) Lat,Lon (METOP-B) SZA (METOP-B ) Date (NOAA-19) Time (NOAA-19) Lat,Lon (NOAA-19) SZA (NOAA-19 ) Distance(km) Time Diff (sec)
1 10/21/2016 13:57:47 76.61, -26.75 87.60 10/21/2016 13:56:35 76.62, -27.92 87.58 30.03 72
2 10/21/2016 14:48:32 -76.44, 139.95 92.58 10/21/2016 14:47:28 -76.45, 140.05 92.58 2.88 64
3 10/21/2016 15:39:12 76.46, -52.66 87.46 10/21/2016 15:38:33 76.45, -52.75 87.45 2.24 39
4 10/21/2016 16:29:54 -76.42, 114.54 92.57 10/21/2016 16:29:30 -76.45, 114.53 92.55 3.29 24
5 10/21/2016 17:20:34 76.44, -78.07 87.46 10/21/2016 17:20:34 76.42, -78.10 87.44 2.63 0
6 10/21/2016 18:11:16 -76.40, 89.14 92.57 10/21/2016 18:11:31 -76.41, 89.17 92.56 1.32 15
7 10/21/2016 19:01:56 76.42,-103.47 87.47 10/21/2016 19:02:36 76.42,-103.63 87.47 3.97 40
8 10/21/2016 19:52:38 -76.39, 63.73 92.56 10/21/2016 19:53:32 -76.37, 63.81 92.57 2.55 54
9 10/21/2016 20:43:22 76.22,-129.53 87.28 10/21/2016 20:44:34 76.25,-128.48 87.34 28.09 72




NCC Satellite Simultaneous Nadir Overpasses (SNOs) Prediction Service
